Timestamp,T5_Demand_MW,T5_Demand_MVAr,T5_Demand_MVA,T5_Gen_MW,T5_Gen_MVAr,T5_Gen_MVA,T5_Import_MW,T5_Import_MVAr,T5_Import_MVA
2020-08-06 00:30:00,2.17,0.24,2.1832315498,0.0,0.0,0.0,2.17,0.24,2.1832315498
2020-08-06 01:00:00,2.1,0.24,2.1136697945,0.0,0.0,0.0,2.1,0.24,2.1136697945
2020-08-06 01:30:00,2.05,0.24,2.064000969,0.0,0.0,0.0,2.05,0.24,2.064000969
2020-08-06 02:00:00,2.02,0.24,2.0342074624,0.0,0.0,0.0,2.02,0.24,2.0342074624
2020-08-06 02:30:00,2.0,0.24,2.0143485299,0.0,0.0,0.0,2.0,0.24,2.0143485299
2020-08-06 03:00:00,1.9500000000000002,0.24,1.9647137196000002,0.0,0.0,0.0,1.9500000000000002,0.24,1.9647137196000002
2020-08-06 03:30:00,1.9500000000000002,0.24,1.9647137196000002,0.0,0.0,0.0,1.9500000000000002,0.24,1.9647137196000002
2020-08-06 04:00:00,2.04,0.24,2.0540691322,0.0,0.0,0.0,2.04,0.24,2.0540691322
2020-08-06 04:30:00,2.04,0.24,2.0540691322,0.0,0.0,0.0,2.04,0.24,2.0540691322
2020-08-06 05:00:00,2.0,0.24,2.0143485299,0.0,0.0,0.0,2.0,0.24,2.0143485299
2020-08-06 05:30:00,2.0,0.24,2.0143485299,0.0,0.0,0.0,2.0,0.24,2.0143485299
2020-08-06 06:00:00,2.08,0.24,2.0938003725,0.0,0.0,0.0,2.08,0.24,2.0938003725
2020-08-06 06:30:00,2.13,0.24,2.1434784813,0.0,0.0,0.0,2.13,0.24,2.1434784813
2020-08-06 07:00:00,2.31,0.26,2.3245859846,0.0,0.0,0.0,2.31,0.26,2.3245859846
2020-08-06 07:30:00,2.65,0.31,2.6680704638,0.0,0.0,0.0,2.65,0.31,2.6680704638
2020-08-06 08:00:00,2.94,0.39,2.9657545414,0.0,0.0,0.0,2.94,0.39,2.9657545414
2020-08-06 08:30:00,3.17,0.45,3.2017807545,0.0,0.0,0.0,3.17,0.45,3.2017807545
2020-08-06 09:00:00,3.47,0.53,3.5102421569,0.0,0.0,0.0,3.47,0.53,3.5102421569
2020-08-06 09:30:00,3.63,0.49,3.6629223306,0.0,0.0,0.0,3.63,0.49,3.6629223306
2020-08-06 10:00:00,3.69,0.49,3.7223917043,0.0,0.0,0.0,3.69,0.49,3.7223917043
2020-08-06 10:30:00,3.86,0.6000000000000001,3.9063537986,0.0,0.0,0.0,3.86,0.6000000000000001,3.9063537986
2020-08-06 11:00:00,3.88,0.6000000000000001,3.9261176753,0.0,0.0,0.0,3.88,0.6000000000000001,3.9261176753
2020-08-06 11:30:00,3.84,0.6000000000000001,3.8865923378,0.0,0.0,0.0,3.84,0.6000000000000001,3.8865923378
2020-08-06 12:00:00,3.99,0.61,4.0363597461,0.0,0.0,0.0,3.99,0.61,4.0363597461
2020-08-06 12:30:00,3.9,0.61,3.9474168769,0.0,0.0,0.0,3.9,0.61,3.9474168769
2020-08-06 13:00:00,3.81,0.53,3.8466868861,0.0,0.0,0.0,3.81,0.53,3.8466868861
2020-08-06 13:30:00,3.81,0.59,3.8554117809,0.0,0.0,0.0,3.81,0.59,3.8554117809
2020-08-06 14:00:00,3.77,0.59,3.815887839,0.0,0.0,0.0,3.77,0.59,3.815887839
2020-08-06 14:30:00,3.81,0.5700000000000001,3.8524018482,0.0,0.0,0.0,3.81,0.5700000000000001,3.8524018482
2020-08-06 15:00:00,3.92,0.63,3.9703022555,0.0,0.0,0.0,3.92,0.63,3.9703022555
2020-08-06 15:30:00,3.92,0.68,3.9785424467,0.0,0.0,0.0,3.92,0.68,3.9785424467
2020-08-06 16:00:00,3.98,0.64,4.0311288741,0.0,0.0,0.0,3.98,0.64,4.0311288741
2020-08-06 16:30:00,3.81,0.6000000000000001,3.8569547573,0.0,0.0,0.0,3.81,0.6000000000000001,3.8569547573
2020-08-06 17:00:00,3.69,0.6000000000000001,3.7384622507,0.0,0.0,0.0,3.69,0.6000000000000001,3.7384622507
2020-08-06 17:30:00,3.56,0.53,3.59923603,0.0,0.0,0.0,3.56,0.53,3.59923603
2020-08-06 18:00:00,3.46,0.53,3.5003571246,0.0,0.0,0.0,3.46,0.53,3.5003571246
2020-08-06 18:30:00,3.44,0.53,3.4805890306,0.0,0.0,0.0,3.44,0.53,3.4805890306
2020-08-06 19:00:00,3.38,0.56,3.4260764732,0.0,0.0,0.0,3.38,0.56,3.4260764732
2020-08-06 19:30:00,3.35,0.56,3.3964834756,0.0,0.0,0.0,3.35,0.56,3.3964834756
2020-08-06 20:00:00,3.24,0.47000000000000003,3.273912033,0.0,0.0,0.0,3.24,0.47000000000000003,3.273912033
2020-08-06 20:30:00,3.14,0.43,3.1693059177,0.0,0.0,0.0,3.14,0.43,3.1693059177
2020-08-06 21:00:00,3.16,0.39,3.1839755024,0.0,0.0,0.0,3.16,0.39,3.1839755024
2020-08-06 21:30:00,3.09,0.39,3.1145144084,0.0,0.0,0.0,3.09,0.39,3.1145144084
2020-08-06 22:00:00,3.04,0.45,3.0731254449,0.0,0.0,0.0,3.04,0.45,3.0731254449
2020-08-06 22:30:00,2.89,0.45,2.9248247811,0.0,0.0,0.0,2.89,0.45,2.9248247811
2020-08-06 23:00:00,2.68,0.4,2.7096863287,0.0,0.0,0.0,2.68,0.4,2.7096863287
2020-08-06 23:30:00,2.52,0.36,2.5455844123,0.0,0.0,0.0,2.52,0.36,2.5455844123
2020-08-07 00:00:00,2.39,0.31,2.4100207468,0.0,0.0,0.0,2.39,0.31,2.4100207468
2020-08-07 00:30:00,2.31,0.33,2.3334523779,0.0,0.0,0.0,2.31,0.33,2.3334523779
2020-08-07 01:00:00,2.24,0.31,2.2613491548,0.0,0.0,0.0,2.24,0.31,2.2613491548
2020-08-07 01:30:00,2.15,0.31,2.1722338732,0.0,0.0,0.0,2.15,0.31,2.1722338732
2020-08-07 02:00:00,2.15,0.31,2.1722338732,0.0,0.0,0.0,2.15,0.31,2.1722338732
2020-08-07 02:30:00,2.12,0.31,2.1425452154,0.0,0.0,0.0,2.12,0.31,2.1425452154
2020-08-07 03:00:00,2.07,0.31,2.0930838493,0.0,0.0,0.0,2.07,0.31,2.0930838493
2020-08-07 03:30:00,2.07,0.31,2.0930838493,0.0,0.0,0.0,2.07,0.31,2.0930838493
2020-08-07 04:00:00,2.13,0.34,2.156965461,0.0,0.0,0.0,2.13,0.34,2.156965461
2020-08-07 04:30:00,2.16,0.31,2.182131985,0.0,0.0,0.0,2.16,0.31,2.182131985
2020-08-07 05:00:00,2.1,0.31,2.1227576404,0.0,0.0,0.0,2.1,0.31,2.1227576404
2020-08-07 05:30:00,2.1,0.31,2.1227576404,0.0,0.0,0.0,2.1,0.31,2.1227576404
2020-08-07 06:00:00,2.15,0.31,2.1722338732,0.0,0.0,0.0,2.15,0.31,2.1722338732
2020-08-07 06:30:00,2.2800000000000002,0.31,2.3009780529,0.0,0.0,0.0,2.2800000000000002,0.31,2.3009780529
2020-08-07 07:00:00,2.5,0.39,2.530237143,0.0,0.0,0.0,2.5,0.39,2.530237143
2020-08-07 07:30:00,2.95,0.47000000000000003,2.9872060525,0.0,0.0,0.0,2.95,0.47000000000000003,2.9872060525
2020-08-07 08:00:00,3.26,0.51,3.2996514967,0.0,0.0,0.0,3.26,0.51,3.2996514967
2020-08-07 08:30:00,3.58,0.64,3.6367567969,0.0,0.0,0.0,3.58,0.64,3.6367567969
2020-08-07 09:00:00,3.89,0.72,3.9560712835,0.0,0.0,0.0,3.89,0.72,3.9560712835
2020-08-07 09:30:00,4.09,0.86,4.1794377612,0.0,0.0,0.0,4.09,0.86,4.1794377612
2020-08-07 10:00:00,4.06,0.86,4.1500843365,0.0,0.0,0.0,4.06,0.86,4.1500843365
2020-08-07 10:30:00,4.03,0.81,4.1105960638,0.0,0.0,0.0,4.03,0.81,4.1105960638
2020-08-07 11:00:00,4.19,0.89,4.2834798937,0.0,0.0,0.0,4.19,0.89,4.2834798937
2020-08-07 11:30:00,4.17,0.89,4.2639183857,0.0,0.0,0.0,4.17,0.89,4.2639183857
2020-08-07 12:00:00,4.27,0.93,4.3701029736,0.0,0.0,0.0,4.27,0.93,4.3701029736
2020-08-07 12:30:00,4.18,0.86,4.2675519915,0.0,0.0,0.0,4.18,0.86,4.2675519915
2020-08-07 13:00:00,4.07,0.84,4.1557791087,0.0,0.0,0.0,4.07,0.84,4.1557791087
2020-08-07 13:30:00,4.07,0.8200000000000001,4.1517827496,0.0,0.0,0.0,4.07,0.8200000000000001,4.1517827496
2020-08-07 14:00:00,4.03,0.77,4.1029014124,0.0,0.0,0.0,4.03,0.77,4.1029014124
2020-08-07 14:30:00,3.91,0.74,3.9794095039,0.0,0.0,0.0,3.91,0.74,3.9794095039
2020-08-07 15:00:00,3.8200000000000003,0.72,3.8872612467,0.0,0.0,0.0,3.8200000000000003,0.72,3.8872612467
2020-08-07 15:30:00,3.7800000000000002,0.67,3.8389191187,0.0,0.0,0.0,3.7800000000000002,0.67,3.8389191187
2020-08-07 16:00:00,3.59,0.73,3.663468302,0.0,0.0,0.0,3.59,0.73,3.663468302
2020-08-07 16:30:00,3.54,0.73,3.6144847489,0.0,0.0,0.0,3.54,0.73,3.6144847489
2020-08-07 17:00:00,3.54,0.66,3.6009998611,0.0,0.0,0.0,3.54,0.66,3.6009998611
2020-08-07 17:30:00,3.48,0.63,3.5365661312,0.0,0.0,0.0,3.48,0.63,3.5365661312
2020-08-07 18:00:00,3.48,0.59,3.5296600403,0.0,0.0,0.0,3.48,0.59,3.5296600403
2020-08-07 18:30:00,3.39,0.5700000000000001,3.4375863626,0.0,0.0,0.0,3.39,0.5700000000000001,3.4375863626
2020-08-07 19:00:00,3.34,0.5700000000000001,3.3882886536,0.0,0.0,0.0,3.34,0.5700000000000001,3.3882886536
2020-08-07 19:30:00,3.27,0.54,3.3142872537,0.0,0.0,0.0,3.27,0.54,3.3142872537
2020-08-07 20:00:00,3.2,0.54,3.245242672,0.0,0.0,0.0,3.2,0.54,3.245242672
2020-08-07 20:30:00,3.13,0.48,3.1665912272,0.0,0.0,0.0,3.13,0.48,3.1665912272
2020-08-07 21:00:00,3.07,0.48,3.1072978615,0.0,0.0,0.0,3.07,0.48,3.1072978615
2020-08-07 21:30:00,3.1,0.48,3.1369411853,0.0,0.0,0.0,3.1,0.48,3.1369411853
2020-08-07 22:00:00,3.05,0.48,3.0875394734,0.0,0.0,0.0,3.05,0.48,3.0875394734
2020-08-07 22:30:00,2.88,0.45,2.9149442533,0.0,0.0,0.0,2.88,0.45,2.9149442533
2020-08-07 23:00:00,2.73,0.43,2.7636569975,0.0,0.0,0.0,2.73,0.43,2.7636569975
2020-08-07 23:30:00,2.61,0.38,2.6375177725,0.0,0.0,0.0,2.61,0.38,2.6375177725
2020-08-08 00:00:00,2.48,0.38,2.508944001,0.0,0.0,0.0,2.48,0.38,2.508944001
2020-08-08 00:30:00,2.45,0.41000000000000003,2.4840692422,0.0,0.0,0.0,2.45,0.41000000000000003,2.4840692422
2020-08-08 01:00:00,2.35,0.35000000000000003,2.3759208741,0.0,0.0,0.0,2.35,0.35000000000000003,2.3759208741
2020-08-08 01:30:00,2.26,0.32,2.2825424421,0.0,0.0,0.0,2.26,0.32,2.2825424421
2020-08-08 02:00:00,2.24,0.35000000000000003,2.2671788637,0.0,0.0,0.0,2.24,0.35000000000000003,2.2671788637
2020-08-08 02:30:00,2.13,0.31,2.1524404754,0.0,0.0,0.0,2.13,0.31,2.1524404754
2020-08-08 03:00:00,2.13,0.34,2.156965461,0.0,0.0,0.0,2.13,0.34,2.156965461
2020-08-08 03:30:00,2.08,0.27,2.0974508338,0.0,0.0,0.0,2.08,0.27,2.0974508338
2020-08-08 04:00:00,2.08,0.27,2.0974508338,0.0,0.0,0.0,2.08,0.27,2.0974508338
2020-08-08 04:30:00,2.2,0.27,2.2165062599,0.0,0.0,0.0,2.2,0.27,2.2165062599
2020-08-08 05:00:00,2.07,0.27,2.0875344309,0.0,0.0,0.0,2.07,0.27,2.0875344309
2020-08-08 05:30:00,2.07,0.24,2.0838665984,0.0,0.0,0.0,2.07,0.24,2.0838665984
2020-08-08 06:00:00,2.15,0.24,2.1633538777,0.0,0.0,0.0,2.15,0.24,2.1633538777
2020-08-08 06:30:00,2.11,0.24,2.1236054247,0.0,0.0,0.0,2.11,0.24,2.1236054247
2020-08-08 07:00:00,2.21,0.30000000000000004,2.2302690421,0.0,0.0,0.0,2.21,0.30000000000000004,2.2302690421
2020-08-08 07:30:00,2.4,0.34,2.4239636961,0.0,0.0,0.0,2.4,0.34,2.4239636961
2020-08-08 08:00:00,2.65,0.38,2.6771066471,0.0,0.0,0.0,2.65,0.38,2.6771066471
2020-08-08 08:30:00,2.8,0.46,2.8375341408,0.0,0.0,0.0,2.8,0.46,2.8375341408
2020-08-08 09:00:00,2.9,0.46,2.9362561196,0.0,0.0,0.0,2.9,0.46,2.9362561196
2020-08-08 09:30:00,3.15,0.5700000000000001,3.2011560412,0.0,0.0,0.0,3.15,0.5700000000000001,3.2011560412
2020-08-08 10:00:00,3.12,0.61,3.1790721917,0.0,0.0,0.0,3.12,0.61,3.1790721917
2020-08-08 10:30:00,3.19,0.61,3.2477992549,0.0,0.0,0.0,3.19,0.61,3.2477992549
2020-08-08 11:00:00,3.21,0.61,3.2674454854,0.0,0.0,0.0,3.21,0.61,3.2674454854
2020-08-08 11:30:00,3.18,0.61,3.237977764,0.0,0.0,0.0,3.18,0.61,3.237977764
2020-08-08 12:00:00,3.32,0.66,3.384966765,0.0,0.0,0.0,3.32,0.66,3.384966765
2020-08-08 12:30:00,3.25,0.61,3.306750671,0.0,0.0,0.0,3.25,0.61,3.306750671
2020-08-08 13:00:00,3.33,0.61,3.3854098718,0.0,0.0,0.0,3.33,0.61,3.3854098718
2020-08-08 13:30:00,3.33,0.65,3.3928454135,0.0,0.0,0.0,3.33,0.65,3.3928454135
2020-08-08 14:00:00,3.26,0.65,3.3241690691,0.0,0.0,0.0,3.26,0.65,3.3241690691
2020-08-08 14:30:00,3.31,0.65,3.3732180481,0.0,0.0,0.0,3.31,0.65,3.3732180481
2020-08-08 15:00:00,3.23,0.68,3.3008029326,0.0,0.0,0.0,3.23,0.68,3.3008029326
2020-08-08 15:30:00,3.23,0.65,3.294753405,0.0,0.0,0.0,3.23,0.65,3.294753405
2020-08-08 16:00:00,3.23,0.65,3.294753405,0.0,0.0,0.0,3.23,0.65,3.294753405
2020-08-08 16:30:00,3.12,0.6000000000000001,3.1771685508,0.0,0.0,0.0,3.12,0.6000000000000001,3.1771685508
2020-08-08 17:00:00,3.31,0.6000000000000001,3.363941141,0.0,0.0,0.0,3.31,0.6000000000000001,3.363941141
2020-08-08 17:30:00,3.25,0.56,3.2978932669,0.0,0.0,0.0,3.25,0.56,3.2978932669
2020-08-08 18:00:00,3.25,0.56,3.2978932669,0.0,0.0,0.0,3.25,0.56,3.2978932669
2020-08-08 18:30:00,3.14,0.56,3.1895454222,0.0,0.0,0.0,3.14,0.56,3.1895454222
2020-08-08 19:00:00,3.11,0.5,3.1499365073,0.0,0.0,0.0,3.11,0.5,3.1499365073
2020-08-08 19:30:00,3.11,0.47000000000000003,3.1453139748,0.0,0.0,0.0,3.11,0.47000000000000003,3.1453139748
2020-08-08 20:00:00,3.06,0.47000000000000003,3.0958843648,0.0,0.0,0.0,3.06,0.47000000000000003,3.0958843648
2020-08-08 20:30:00,2.99,0.43,3.0207614934,0.0,0.0,0.0,2.99,0.43,3.0207614934
2020-08-08 21:00:00,2.96,0.4,2.9869047524,0.0,0.0,0.0,2.96,0.4,2.9869047524
2020-08-08 21:30:00,2.96,0.37,2.9830353669000003,0.0,0.0,0.0,2.96,0.37,2.9830353669000003
2020-08-08 22:00:00,2.88,0.37,2.9036700915,0.0,0.0,0.0,2.88,0.37,2.9036700915
2020-08-08 22:30:00,2.7199999999999998,0.37,2.7450500906,0.0,0.0,0.0,2.7199999999999998,0.37,2.7450500906
2020-08-08 23:00:00,2.56,0.34,2.5824794288,0.0,0.0,0.0,2.56,0.34,2.5824794288
2020-08-08 23:30:00,2.45,0.30000000000000004,2.4682990094,0.0,0.0,0.0,2.45,0.30000000000000004,2.4682990094
2020-08-09 00:00:00,2.37,0.30000000000000004,2.3889118862,0.0,0.0,0.0,2.37,0.30000000000000004,2.3889118862
2020-08-09 00:30:00,2.2800000000000002,0.30000000000000004,2.2996521476,0.0,0.0,0.0,2.2800000000000002,0.30000000000000004,2.2996521476
2020-08-09 01:00:00,2.24,0.32,2.2627416998,0.0,0.0,0.0,2.24,0.32,2.2627416998
2020-08-09 01:30:00,2.19,0.32,2.2132555207,0.0,0.0,0.0,2.19,0.32,2.2132555207
2020-08-09 02:00:00,2.14,0.28,2.1582400237,0.0,0.0,0.0,2.14,0.28,2.1582400237
2020-08-09 02:30:00,2.07,0.28,2.088851359,0.0,0.0,0.0,2.07,0.28,2.088851359
2020-08-09 03:00:00,2.09,0.25,2.1048990475,0.0,0.0,0.0,2.09,0.25,2.1048990475
2020-08-09 03:30:00,2.05,0.25,2.0651876428,0.0,0.0,0.0,2.05,0.25,2.0651876428
2020-08-09 04:00:00,2.05,0.25,2.0651876428,0.0,0.0,0.0,2.05,0.25,2.0651876428
2020-08-09 04:30:00,2.14,0.27,2.156965461,0.0,0.0,0.0,2.14,0.27,2.156965461
2020-08-09 05:00:00,2.05,0.27,2.0677040407,0.0,0.0,0.0,2.05,0.27,2.0677040407
2020-08-09 05:30:00,2.05,0.27,2.0677040407,0.0,0.0,0.0,2.05,0.27,2.0677040407
2020-08-09 06:00:00,2.07,0.24,2.0838665984,0.0,0.0,0.0,2.07,0.24,2.0838665984
2020-08-09 06:30:00,2.11,0.26,2.1259586073,0.0,0.0,0.0,2.11,0.26,2.1259586073
2020-08-09 07:00:00,2.14,0.26,2.1557365331,0.0,0.0,0.0,2.14,0.26,2.1557365331
2020-08-09 07:30:00,2.34,0.26,2.3544001359,0.0,0.0,0.0,2.34,0.26,2.3544001359
2020-08-09 08:00:00,2.4,0.26,2.4140422532,0.0,0.0,0.0,2.4,0.26,2.4140422532
2020-08-09 08:30:00,2.51,0.30000000000000004,2.5278647116,0.0,0.0,0.0,2.51,0.30000000000000004,2.5278647116
2020-08-09 09:00:00,2.56,0.30000000000000004,2.5775181862,0.0,0.0,0.0,2.56,0.30000000000000004,2.5775181862
2020-08-09 09:30:00,2.69,0.28,2.7045332314,0.0,0.0,0.0,2.69,0.28,2.7045332314
2020-08-09 10:00:00,2.77,0.31,2.7872925932,0.0,0.0,0.0,2.77,0.31,2.7872925932
2020-08-09 10:30:00,3.13,0.39,3.1542035445,0.0,0.0,0.0,3.13,0.39,3.1542035445
2020-08-09 11:00:00,3.04,0.39,3.0649143544,0.0,0.0,0.0,3.04,0.39,3.0649143544
2020-08-09 11:30:00,3.18,0.43,3.2089406352,0.0,0.0,0.0,3.18,0.43,3.2089406352
2020-08-09 12:00:00,3.15,0.43,3.1792137393,0.0,0.0,0.0,3.15,0.43,3.1792137393
2020-08-09 12:30:00,3.15,0.43,3.1792137393,0.0,0.0,0.0,3.15,0.43,3.1792137393
2020-08-09 13:00:00,3.15,0.43,3.1792137393,0.0,0.0,0.0,3.15,0.43,3.1792137393
2020-08-09 13:30:00,3.26,0.43,3.2882366095,0.0,0.0,0.0,3.26,0.43,3.2882366095
2020-08-09 14:00:00,3.1,0.43,3.1296804949,0.0,0.0,0.0,3.1,0.43,3.1296804949
2020-08-09 14:30:00,3.01,0.39,3.0351606218,0.0,0.0,0.0,3.01,0.39,3.0351606218
2020-08-09 15:00:00,3.09,0.44,3.1211696526,0.0,0.0,0.0,3.09,0.44,3.1211696526
2020-08-09 15:30:00,3.09,0.44,3.1211696526,0.0,0.0,0.0,3.09,0.44,3.1211696526
2020-08-09 16:00:00,2.98,0.41000000000000003,3.0080724725,0.0,0.0,0.0,2.98,0.41000000000000003,3.0080724725
2020-08-09 16:30:00,3.05,0.41000000000000003,3.077433996,0.0,0.0,0.0,3.05,0.41000000000000003,3.077433996
2020-08-09 17:00:00,3.0,0.37,3.0227305537,0.0,0.0,0.0,3.0,0.37,3.0227305537
2020-08-09 17:30:00,3.0,0.33,3.0180954259,0.0,0.0,0.0,3.0,0.33,3.0180954259
2020-08-09 18:00:00,3.12,0.37,3.1418625049,0.0,0.0,0.0,3.12,0.37,3.1418625049
2020-08-09 18:30:00,3.15,0.37,3.171655719,0.0,0.0,0.0,3.15,0.37,3.171655719
2020-08-09 19:00:00,3.06,0.33,3.0777426793,0.0,0.0,0.0,3.06,0.33,3.0777426793
2020-08-09 19:30:00,3.06,0.36,3.0811036984,0.0,0.0,0.0,3.06,0.36,3.0811036984
2020-08-09 20:00:00,2.96,0.34,2.9794630389,0.0,0.0,0.0,2.96,0.34,2.9794630389
2020-08-09 20:30:00,3.2,0.34,3.2180118086,0.0,0.0,0.0,3.2,0.34,3.2180118086
2020-08-09 21:00:00,3.3,0.34,3.3174689147,0.0,0.0,0.0,3.3,0.34,3.3174689147
2020-08-09 21:30:00,3.2,0.34,3.2180118086,0.0,0.0,0.0,3.2,0.34,3.2180118086
2020-08-09 22:00:00,3.1,0.34,3.1185894247,0.0,0.0,0.0,3.1,0.34,3.1185894247
2020-08-09 22:30:00,2.98,0.35000000000000003,3.0004832944,0.0,0.0,0.0,2.98,0.35000000000000003,3.0004832944
2020-08-09 23:00:00,2.92,0.35000000000000003,2.9409012224,0.0,0.0,0.0,2.92,0.35000000000000003,2.9409012224
2020-08-09 23:30:00,2.75,0.31,2.7674175688,0.0,0.0,0.0,2.75,0.31,2.7674175688
2020-08-10 00:00:00,2.6,0.26,2.6129676615,0.0,0.0,0.0,2.6,0.26,2.6129676615
2020-08-10 00:30:00,2.54,0.26,2.5532724101,0.0,0.0,0.0,2.54,0.26,2.5532724101
2020-08-10 01:00:00,2.46,0.26,2.4737016797,0.0,0.0,0.0,2.46,0.26,2.4737016797
2020-08-10 01:30:00,2.36,0.26,2.3742788379,0.0,0.0,0.0,2.36,0.26,2.3742788379
2020-08-10 02:00:00,2.36,0.28,2.3765521244,0.0,0.0,0.0,2.36,0.28,2.3765521244
2020-08-10 02:30:00,2.32,0.28,2.336835467,0.0,0.0,0.0,2.32,0.28,2.336835467
2020-08-10 03:00:00,2.32,0.28,2.336835467,0.0,0.0,0.0,2.32,0.28,2.336835467
2020-08-10 03:30:00,2.2800000000000002,0.26,2.2947766776,0.0,0.0,0.0,2.2800000000000002,0.26,2.2947766776
2020-08-10 04:00:00,2.24,0.24,2.2528204545,0.0,0.0,0.0,2.24,0.24,2.2528204545
2020-08-10 04:30:00,2.36,0.24,2.3721720005,0.0,0.0,0.0,2.36,0.24,2.3721720005
2020-08-10 05:00:00,2.36,0.24,2.3721720005,0.0,0.0,0.0,2.36,0.24,2.3721720005
2020-08-10 05:30:00,2.4,0.26,2.4140422532,0.0,0.0,0.0,2.4,0.26,2.4140422532
2020-08-10 06:00:00,2.44,0.26,2.4538133588,0.0,0.0,0.0,2.44,0.26,2.4538133588
2020-08-10 06:30:00,2.56,0.37,2.5866000851,0.0,0.0,0.0,2.56,0.37,2.5866000851
2020-08-10 07:00:00,2.67,0.4,2.6997962886,0.0,0.0,0.0,2.67,0.4,2.6997962886
2020-08-10 07:30:00,3.25,0.51,3.2897720286,0.0,0.0,0.0,3.25,0.51,3.2897720286
2020-08-10 08:00:00,3.71,0.54,3.7490932237,0.0,0.0,0.0,3.71,0.54,3.7490932237
2020-08-10 08:30:00,4.12,0.71,4.1807296014,0.0,0.0,0.0,4.12,0.71,4.1807296014
2020-08-10 09:00:00,4.49,0.8200000000000001,4.5642633579,0.0,0.0,0.0,4.49,0.8200000000000001,4.5642633579
2020-08-10 09:30:00,4.61,0.93,4.7028714633,0.0,0.0,0.0,4.61,0.93,4.7028714633
2020-08-10 10:00:00,4.71,1.03,4.8213068768,0.0,0.0,0.0,4.71,1.03,4.8213068768
2020-08-10 10:30:00,4.8100000000000005,1.03,4.9190446226999995,0.0,0.0,0.0,4.8100000000000005,1.03,4.9190446226999995
2020-08-10 11:00:00,4.72,1.09,4.844223364,0.0,0.0,0.0,4.72,1.09,4.844223364
2020-08-10 11:30:00,4.66,1.01,4.7681967241,0.0,0.0,0.0,4.66,1.01,4.7681967241
2020-08-10 12:00:00,4.68,1.09,4.8052575373,0.0,0.0,0.0,4.68,1.09,4.8052575373
2020-08-10 12:30:00,4.63,1.09,4.7565743976,0.0,0.0,0.0,4.63,1.09,4.7565743976
2020-08-10 13:00:00,4.63,1.04,4.7453661608,0.0,0.0,0.0,4.63,1.04,4.7453661608
2020-08-10 13:30:00,4.71,1.04,4.8234531199,0.0,0.0,0.0,4.71,1.04,4.8234531199
2020-08-10 14:00:00,4.71,1.01,4.8170738006,0.0,0.0,0.0,4.71,1.01,4.8170738006
2020-08-10 14:30:00,4.77,1.03,4.8799385242,0.0,0.0,0.0,4.77,1.03,4.8799385242
2020-08-10 15:00:00,4.92,1.17,5.0572027841,0.0,0.0,0.0,4.92,1.17,5.0572027841
2020-08-10 15:30:00,5.04,1.1,5.1586432325,0.0,0.0,0.0,5.04,1.1,5.1586432325
2020-08-10 16:00:00,5.0,1.1,5.1195702945,0.0,0.0,0.0,5.0,1.1,5.1195702945
2020-08-10 16:30:00,4.93,1.08,5.0469099457,0.0,0.0,0.0,4.93,1.08,5.0469099457
2020-08-10 17:00:00,4.87,1.08,4.9883163492,0.0,0.0,0.0,4.87,1.08,4.9883163492
2020-08-10 17:30:00,4.9,1.01,5.0030090945,0.0,0.0,0.0,4.9,1.01,5.0030090945
2020-08-10 18:00:00,4.85,0.96,4.9440974909,0.0,0.0,0.0,4.85,0.96,4.9440974909
2020-08-10 18:30:00,4.79,0.96,4.8852533199,0.0,0.0,0.0,4.79,0.96,4.8852533199
2020-08-10 19:00:00,4.69,0.93,4.78131781,0.0,0.0,0.0,4.69,0.93,4.78131781
2020-08-10 19:30:00,4.69,0.9,4.775573264,0.0,0.0,0.0,4.69,0.9,4.775573264
2020-08-10 20:00:00,4.5,0.87,4.5833284848,0.0,0.0,0.0,4.5,0.87,4.5833284848
2020-08-10 20:30:00,4.35,0.8300000000000001,4.4284760358,0.0,0.0,0.0,4.35,0.8300000000000001,4.4284760358
2020-08-10 21:00:00,4.26,0.8300000000000001,4.3401036854,0.0,0.0,0.0,4.26,0.8300000000000001,4.3401036854
2020-08-10 21:30:00,4.26,0.8300000000000001,4.3401036854,0.0,0.0,0.0,4.26,0.8300000000000001,4.3401036854
2020-08-10 22:00:00,4.06,0.78,4.1342472108,0.0,0.0,0.0,4.06,0.78,4.1342472108
2020-08-10 22:30:00,3.87,0.78,3.9478221844,0.0,0.0,0.0,3.87,0.78,3.9478221844
2020-08-10 23:00:00,3.87,0.76,3.9439193704,0.0,0.0,0.0,3.87,0.76,3.9439193704
2020-08-10 23:30:00,3.62,0.76,3.6989187609,0.0,0.0,0.0,3.62,0.76,3.6989187609
2020-08-11 00:00:00,3.44,0.73,3.5166034749,0.0,0.0,0.0,3.44,0.73,3.5166034749
2020-08-11 00:30:00,3.5,0.73,3.5753181677,0.0,0.0,0.0,3.5,0.73,3.5753181677
2020-08-11 01:00:00,3.61,0.62,3.6628540784,0.0,0.0,0.0,3.61,0.62,3.6628540784
2020-08-11 01:30:00,3.51,0.62,3.5643372455,0.0,0.0,0.0,3.51,0.62,3.5643372455
2020-08-11 02:00:00,3.39,0.62,3.446229824,0.0,0.0,0.0,3.39,0.62,3.446229824
2020-08-11 02:30:00,3.39,0.62,3.446229824,0.0,0.0,0.0,3.39,0.62,3.446229824
2020-08-11 03:00:00,3.33,0.62,3.3872260037,0.0,0.0,0.0,3.33,0.62,3.3872260037
2020-08-11 03:30:00,3.29,0.62,3.3479097957,0.0,0.0,0.0,3.29,0.62,3.3479097957
2020-08-11 04:00:00,3.23,0.62,3.288966403,0.0,0.0,0.0,3.23,0.62,3.288966403
2020-08-11 04:30:00,3.25,0.58,3.3013482094,0.0,0.0,0.0,3.25,0.58,3.3013482094
2020-08-11 05:00:00,3.25,0.58,3.3013482094,0.0,0.0,0.0,3.25,0.58,3.3013482094
2020-08-11 05:30:00,3.25,0.58,3.3013482094,0.0,0.0,0.0,3.25,0.58,3.3013482094
2020-08-11 06:00:00,3.31,0.63,3.3694213153,0.0,0.0,0.0,3.31,0.63,3.3694213153
2020-08-11 06:30:00,3.56,0.71,3.6301101912,0.0,0.0,0.0,3.56,0.71,3.6301101912
2020-08-11 07:00:00,3.75,0.9,3.8564880397,0.0,0.0,0.0,3.75,0.9,3.8564880397
2020-08-11 07:30:00,4.1,0.97,4.2131816956,0.0,0.0,0.0,4.1,0.97,4.2131816956
2020-08-11 08:00:00,4.35,1.01,4.4657138287,0.0,0.0,0.0,4.35,1.01,4.4657138287
2020-08-11 08:30:00,4.66,1.01,4.7681967241,0.0,0.0,0.0,4.66,1.01,4.7681967241
2020-08-11 09:00:00,4.62,0.9400000000000001,4.714657994,0.0,0.0,0.0,4.62,0.9400000000000001,4.714657994
2020-08-11 09:30:00,4.8,1.03,4.9092667477,0.0,0.0,0.0,4.8,1.03,4.9092667477
2020-08-11 10:00:00,4.88,0.98,4.9774290552,0.0,0.0,0.0,4.88,0.98,4.9774290552
2020-08-11 10:30:00,5.29,1.1,5.4031564849,0.0,0.0,0.0,5.29,1.1,5.4031564849
2020-08-11 11:00:00,5.4,1.19,5.5295659866,0.0,0.0,0.0,5.4,1.19,5.5295659866
2020-08-11 11:30:00,5.69,1.65,5.9244071433,0.0,0.0,0.0,5.69,1.65,5.9244071433
2020-08-11 12:00:00,5.69,1.51,5.886951673,0.0,0.0,0.0,5.69,1.51,5.886951673
2020-08-11 12:30:00,5.67,1.42,5.8451090666,0.0,0.0,0.0,5.67,1.42,5.8451090666
2020-08-11 13:00:00,5.71,1.55,5.9166375586,0.0,0.0,0.0,5.71,1.55,5.9166375586
2020-08-11 13:30:00,5.59,1.4100000000000001,5.7650845614,0.0,0.0,0.0,5.59,1.4100000000000001,5.7650845614
2020-08-11 14:00:00,5.61,1.4100000000000001,5.7844792333,0.0,0.0,0.0,5.61,1.4100000000000001,5.7844792333
2020-08-11 14:30:00,5.76,1.6600000000000001,5.9944307486,0.0,0.0,0.0,5.76,1.6600000000000001,5.9944307486
2020-08-11 15:00:00,5.76,1.7000000000000002,6.0056306913,0.0,0.0,0.0,5.76,1.7000000000000002,6.0056306913
2020-08-11 15:30:00,5.55,1.62,5.7816001245,0.0,0.0,0.0,5.55,1.62,5.7816001245
2020-08-11 16:00:00,5.41,1.4100000000000001,5.5907244611,0.0,0.0,0.0,5.41,1.4100000000000001,5.5907244611
2020-08-11 16:30:00,5.58,1.6,5.8048600328,0.0,0.0,0.0,5.58,1.6,5.8048600328
2020-08-11 17:00:00,5.43,1.5,5.6333737671,0.0,0.0,0.0,5.43,1.5,5.6333737671
2020-08-11 17:30:00,5.29,1.3900000000000001,5.469570367,0.0,0.0,0.0,5.29,1.3900000000000001,5.469570367
2020-08-11 18:00:00,5.09,1.15,5.2182947406,0.0,0.0,0.0,5.09,1.15,5.2182947406
2020-08-11 18:30:00,5.06,1.12,5.1824704534,0.0,0.0,0.0,5.06,1.12,5.1824704534
2020-08-11 19:00:00,5.06,1.12,5.1824704534,0.0,0.0,0.0,5.06,1.12,5.1824704534
2020-08-11 19:30:00,4.96,1.09,5.0783560332,0.0,0.0,0.0,4.96,1.09,5.0783560332
2020-08-11 20:00:00,4.84,1.06,4.9547149262,0.0,0.0,0.0,4.84,1.06,4.9547149262
2020-08-11 20:30:00,4.72,1.04,4.8332183894,0.0,0.0,0.0,4.72,1.04,4.8332183894
2020-08-11 21:00:00,4.63,1.0,4.7367604964000005,0.0,0.0,0.0,4.63,1.0,4.7367604964000005
2020-08-11 21:30:00,4.5600000000000005,0.97,4.6620274559,0.0,0.0,0.0,4.5600000000000005,0.97,4.6620274559
2020-08-11 22:00:00,4.4,0.9500000000000001,4.5013886746,0.0,0.0,0.0,4.4,0.9500000000000001,4.5013886746